FW6449 Weather Reports


Display with metric or nautical units.
time (UTC)temp
F
wind
direction
speed
MPH
gust
MPH
rain 1hr
in
rain 24hr
in
rain mn
in
humidity
%
barometer
mb
20200705095455 39 315 2.0 7.0 0.00 0.00 0.01 95 1012.7
20200705094945 39 203 2.0 7.0 0.00 0.00 0.01 95 1012.5
20200705094435 40 225 2.0 8.0 0.00 0.00 0.01 95 1012.3
20200705093925 40 180 3.0 8.0 0.00 0.00 0.01 95 1012.2
20200705093415 40 225 3.0 8.0 0.00 0.00 0.01 95 1012.0
20200705092905 40 225 3.0 7.0 0.00 0.00 0.01 95 1011.8
20200705092355 40 270 2.0 6.0 0.00 0.00 0.01 95 1011.8
20200705091845 40 225 3.0 7.0 0.00 0.00 0.01 94 1011.8
20200705091334 40 180 3.0 7.0 0.00 0.00 0.01 94 1011.9
20200705090825 40 270 3.0 5.0 0.00 0.00 0.01 94 1012.0
20200705090315 40 270 2.0 5.0 0.00 0.00 0.01 94 1011.9
20200705085804 41 270 3.0 5.0 0.00 0.00 0.01 94 1011.9
20200705085254 41 315 2.0 4.0 0.00 0.00 0.01 93 1011.8
20200705084744 41 270 2.0 4.0 0.00 0.00 0.01 92 1011.7
20200705084234 41 270 2.0 4.0 0.00 0.00 0.01 92 1011.6
20200705083723 41 270 2.0 4.0 0.00 0.00 0.01 92 1011.6
20200705083214 41 270 2.0 4.0 0.00 0.00 0.01 92 1011.4
20200705082704 42 225 2.0 4.0 0.00 0.00 0.01 92 1011.5
20200705082153 42 225 2.0 4.0 0.00 0.00 0.01 92 1011.3
20200705081643 42 180 3.0 5.0 0.00 0.00 0.01 92 1011.5
20200705081133 42 270 1.0 6.0 0.00 0.00 0.01 92 1011.6
20200705080623 42 203 1.0 6.0 0.00 0.00 0.01 92 1011.6
20200705080113 42 315 2.0 8.0 0.00 0.00 0.01 91 1011.6
20200705075603 42 270 3.0 8.0 0.00 0.00 0.01 91 1011.6
20200705075052 42 180 5.0 9.0 0.00 0.00 0.01 91 1011.6
20200705074542 43 45 3.0 9.0 0.00 0.00 0.01 91 1011.8
20200705074034 43 338 4.0 8.0 0.00 0.00 0.01 90 1011.7
20200705073522 43 180 4.0 8.0 0.00 0.00 0.01 90 1011.8
20200705073012 43 180 4.0 8.0 0.00 0.00 0.01 90 1011.9
20200705072501 43 225 4.0 8.0 0.00 0.00 0.01 90 1011.9
20200705071952 44 225 3.0 7.0 0.00 0.00 0.01 90 1011.9
20200705071441 44 225 4.0 7.0 0.00 0.00 0.01 90 1012.1
20200705070931 44 180 3.0 7.0 0.00 0.00 0.01 90 1012.2
20200705070421 44 270 3.0 7.0 0.00 0.00 0.01 90 1012.2
20200705065911 44 225 4.0 6.0 0.00 0.00 0.01 91 1012.1
20200705065401 44 315 4.0 6.0 0.00 0.00 0.01 91 1011.9
20200705064851 44 180 4.0 8.0 0.00 0.00 0.01 92 1012.1
20200705064341 44 270 3.0 8.0 0.00 0.00 0.01 92 1012.0
20200705063828 44 225 2.0 0.0 0.00 0.00 0.01 93 1012.3
20200705063211 44 315 2.0 0.0 0.00 0.00 0.01 94 1012.3
20200705063001 45 270 4.0 6.0 0.00 0.01 0.01 93 1012.3
20200705062451 45 225 2.0 8.0 0.00 0.01 0.01 94 1011.8
20200705061941 45 225 4.0 8.0 0.00 0.01 0.01 94 1011.7
20200705061430 45 315 3.0 5.0 0.00 0.01 0.01 94 1011.6
20200705060920 45 225 1.0 7.0 0.00 0.01 0.01 94 1011.4
20200705060411 45 180 3.0 7.0 0.00 0.01 0.01 94 1011.2
20200705055900 45 270 2.0 4.0 0.00 0.01 0.01 94 1011.3
20200705055350 46 225 2.0 4.0 0.00 0.01 0.01 94 1011.5
20200705054840 46 270 3.0 4.0 0.00 0.01 0.01 94 1011.6
20200705054330 46 315 2.0 3.0 0.00 0.01 0.01 94 1011.6
20200705053821 46 270 2.0 2.0 0.00 0.01 0.01 94 1011.5
20200705053310 46 270 1.0 2.0 0.00 0.01 0.01 94 1011.6
20200705052800 46 270 0.0 2.0 0.00 0.01 0.01 94 1011.4
20200705052249 46 270 0.0 2.0 0.00 0.01 0.01 94 1011.3
20200705051739 46 270 0.0 2.0 0.01 0.01 0.01 94 1011.3
20200705051229 46 270 1.0 2.0 0.01 0.01 0.01 94 1011.2
20200705050719 46 225 2.0 2.0 0.01 0.01 0.01 94 1011.3
20200705050209 46 180 1.0 2.0 0.01 0.01 0.01 93 1011.2
20200705045659 46 180 1.0 2.0 0.01 0.01 0.01 93 1011.3
20200705045148 46 180 0.0 2.0 0.01 0.01 0.01 93 1011.5
20200705044641 46 180 0.0 2.0 0.01 0.01 0.01 93 1011.5
20200705044128 46 225 1.0 4.0 0.01 0.01 0.01 93 1011.5
20200705043618 46 180 1.0 4.0 0.01 0.01 0.01 93 1011.6
20200705043108 46 225 3.0 4.0 0.01 0.01 0.01 93 1011.8
20200705042558 46 270 2.0 7.0 0.01 0.01 0.01 93 1011.9
20200705042048 46 135 2.0 7.0 0.00 0.00 0.00 92 1012.0
20200705041538 47 225 2.0 7.0 0.00 0.00 0.00 92 1012.0
20200705041030 47 225 2.0 7.0 0.00 0.00 0.00 92 1012.1
20200705040518 47 248 3.0 6.0 0.00 0.00 0.00 92 1012.2
20200705040007 47 315 3.0 5.0 0.00 0.00 0.00 91 1012.2
20200705035458 47 270 2.0 4.0 0.00 0.00 0.00 90 1012.4
20200705034947 47 270 2.0 4.0 0.00 0.00 0.00 90 1012.2
20200705034437 47 225 3.0 5.0 0.00 0.00 0.00 89 1012.1
20200705033927 47 270 2.0 6.0 0.00 0.00 0.00 89 1012.0
20200705033417 47 315 2.0 6.0 0.00 0.00 0.00 88 1012.0
20200705032907 47 270 4.0 8.0 0.00 0.00 0.00 87 1012.3
20200705032357 47 225 3.0 11.0 0.00 0.00 0.00 86 1012.4
20200705031847 48 270 5.0 11.0 0.00 0.00 0.00 85 1012.3
20200705031336 48 225 3.0 8.0 0.00 0.00 0.00 83 1012.1
20200705030826 48 270 2.0 4.0 0.00 0.00 0.00 83 1011.9
20200705030317 48 270 2.0 4.0 0.00 0.00 0.00 83 1011.8
20200705025806 48 270 2.0 3.0 0.00 0.00 0.00 83 1011.9
20200705025257 48 225 2.0 4.0 0.00 0.00 0.00 83 1011.6
20200705024746 48 225 2.0 4.0 0.00 0.00 0.00 83 1011.2
20200705024236 48 293 2.0 3.0 0.00 0.00 0.00 84 1011.2
20200705023725 48 180 1.0 3.0 0.00 0.00 0.00 85 1011.2
20200705023217 48 225 2.0 4.0 0.00 0.00 0.00 85 1011.1
20200705022706 48 225 2.0 5.0 0.00 0.00 0.00 85 1010.7
20200705022158 48 180 1.0 6.0 0.00 0.00 0.00 86 1010.7
20200705021645 48 225 2.0 6.0 0.00 0.00 0.00 86 1010.7
20200705021135 48 270 3.0 4.0 0.00 0.00 0.00 87 1010.7
20200705020626 47 225 2.0 7.0 0.00 0.00 0.00 87 1010.7
20200705020114 47 270 2.0 8.0 0.00 0.00 0.00 87 1010.5
20200705015604 47 225 3.0 8.0 0.00 0.00 0.00 87 1010.5
20200705015052 47 225 2.0 0.0 0.00 0.00 0.00 87 1010.5
20200705014643 47 225 3.0 8.0 0.00 0.00 0.00 87 1010.4
20200705014133 47 225 2.0 7.0 0.00 0.00 0.00 87 1010.5
20200705013623 48 225 4.0 7.0 0.00 0.00 0.00 87 1010.2
20200705013111 48 225 3.0 0.0 0.00 0.00 0.00 86 1010.3
20200705012551 48 225 3.0 8.0 0.00 0.00 0.00 86 1010.3
20200705012041 48 180 3.0 9.0 0.00 0.00 0.00 86 1009.9
20200705011532 48 270 4.0 9.0 0.00 0.00 0.00 86 1010.0
20200705011021 48 270 4.0 8.0 0.00 0.00 0.00 86 1009.9
20200705010513 48 180 5.0 8.0 0.00 0.00 0.00 86 1009.8
20200705010000 48 225 4.0 6.0 0.00 0.00 0.00 86 1009.7
20200705005451 48 225 2.0 7.0 0.00 0.00 0.00 85 1009.7
20200705004940 48 225 5.0 7.0 0.00 0.00 0.00 85 1009.7
20200705004430 48 225 4.0 7.0 0.00 0.00 0.00 85 1009.9
20200705003920 48 225 3.0 7.0 0.00 0.00 0.00 85 1009.8
20200705003410 48 225 3.0 7.0 0.00 0.00 0.00 84 1010.0
20200705002859 48 225 1.0 7.0 0.00 0.00 0.00 84 1010.0
20200705002350 48 225 5.0 7.0 0.00 0.00 0.00 84 1010.0
20200705001840 48 180 2.0 7.0 0.00 0.00 0.00 84 1009.8
20200705001330 48 225 4.0 7.0 0.00 0.00 0.00 84 1009.8
20200705000819 48 180 5.0 7.0 0.00 0.00 0.00 84 1009.3
20200705000309 48 225 3.0 7.0 0.00 0.00 0.00 84 1009.1
20200704235759 48 270 2.0 4.0 0.00 0.00 0.00 83 1008.9
20200704235249 48 225 2.0 4.0 0.00 0.00 0.00 83 1008.8
20200704234738 48 225 2.0 4.0 0.00 0.00 0.00 84 1008.8
20200704234228 48 180 2.0 4.0 0.00 0.00 0.00 84 1008.6
20200704233721 48 180 2.0 4.0 0.00 0.00 0.00 84 1008.6
20200704233209 48 135 2.0 4.0 0.00 0.00 0.00 84 1008.6
20200704232658 48 225 1.0 5.0 0.00 0.00 0.00 84 1008.8
20200704232148 48 180 3.0 5.0 0.00 0.00 0.00 84 1008.8
20200704231638 48 225 3.0 5.0 0.00 0.00 0.00 84 1008.8
20200704231129 48 225 3.0 6.0 0.00 0.00 0.00 83 1008.7
20200704230619 48 270 3.0 6.0 0.00 0.00 0.00 83 1008.7
20200704230108 48 225 3.0 6.0 0.00 0.00 0.00 83 1008.7
20200704225557 48 225 3.0 6.0 0.00 0.00 0.00 83 1008.5
20200704225047 48 180 4.0 5.0 0.00 0.00 0.00 82 1008.3
20200704224538 48 225 2.0 5.0 0.00 0.00 0.00 82 1008.2
20200704224032 49 225 2.0 6.0 0.00 0.00 0.00 82 1008.2
20200704223518 49 180 2.0 6.0 0.00 0.00 0.00 82 1008.1
20200704223009 49 180 2.0 5.0 0.00 0.00 0.00 82 1008.0
20200704222457 49 225 3.0 5.0 0.00 0.00 0.00 82 1008.2
20200704221947 49 180 2.0 7.0 0.00 0.00 0.00 82 1008.2
20200704221436 49 225 1.0 8.0 0.00 0.00 0.00 82 1008.2
20200704220927 49 248 2.0 8.0 0.00 0.00 0.00 83 1008.1
20200704220417 49 180 3.0 5.0 0.00 0.00 0.00 83 1008.0
20200704215906 49 135 3.0 6.0 0.00 0.00 0.00 83 1008.1
20200704215357 49 203 3.0 8.0 0.00 0.00 0.00 82 1008.0
20200704214847 49 180 2.0 8.0 0.00 0.00 0.00 82 1008.0
20200704214336 49 180 4.0 6.0 0.00 0.00 0.00 82 1008.2
20200704213828 49 225 3.0 6.0 0.00 0.00 0.00 82 1008.1
20200704213313 49 225 2.0 0.0 0.00 0.00 0.00 82 1008.1
20200704213002 49 225 2.0 4.0 0.00 0.00 0.00 82 1008.1
20200704212453 49 225 2.0 4.0 0.00 0.00 0.00 82 1007.9
20200704211945 49 225 2.0 3.0 0.00 0.00 0.00 81 1008.2
20200704211432 49 180 1.0 3.0 0.00 0.00 0.00 81 1008.2
20200704210922 49 135 2.0 4.0 0.00 0.00 0.00 81 1008.0
20200704210411 49 180 1.0 4.0 0.00 0.00 0.00 81 1007.9
20200704205901 49 225 2.0 4.0 0.00 0.00 0.00 81 1007.8
20200704205352 50 180 1.0 4.0 0.00 0.00 0.00 81 1007.5
20200704204842 50 180 1.0 5.0 0.00 0.00 0.00 81 1007.7
20200704204332 50 180 2.0 5.0 0.00 0.00 0.00 81 1007.9
20200704203821 50 270 2.0 4.0 0.00 0.00 0.00 79 1007.8
20200704203311 50 270 3.0 4.0 0.00 0.00 0.00 79 1007.8
20200704202801 50 135 3.0 4.0 0.00 0.00 0.00 78 1007.5
20200704202250 50 225 3.0 4.0 0.00 0.00 0.00 78 1007.6
20200704201740 50 135 1.0 4.0 0.00 0.00 0.00 78 1007.6
20200704201230 50 315 1.0 4.0 0.00 0.00 0.00 77 1007.7
20200704200723 50 225 1.0 4.0 0.00 0.00 0.00 76 1007.3
20200704200210 51 180 2.0 4.0 0.00 0.00 0.00 75 1007.2
20200704195701 51 225 2.0 4.0 0.00 0.00 0.00 75 1007.3
20200704195150 51 225 2.0 3.0 0.00 0.00 0.00 75 1007.2
20200704194640 51 180 2.0 4.0 0.00 0.00 0.00 74 1007.3
20200704194130 51 225 2.0 5.0 0.00 0.00 0.00 74 1007.0
20200704193619 51 180 2.0 5.0 0.00 0.00 0.00 73 1007.0
20200704193110 51 180 1.0 4.0 0.00 0.00 0.00 73 1006.9
20200704192559 51 180 2.0 4.0 0.00 0.00 0.00 73 1006.9
20200704192049 51 180 2.0 4.0 0.00 0.00 0.00 72 1006.7
20200704191545 51 180 2.0 4.0 0.00 0.00 0.00 72 1006.8
20200704191028 51 135 3.0 6.0 0.00 0.00 0.00 72 1006.7
20200704190519 51 225 2.0 6.0 0.00 0.00 0.00 72 1006.7
20200704190014 51 180 2.0 6.0 0.00 0.00 0.00 72 1006.8
20200704185501 51 270 2.0 6.0 0.00 0.00 0.00 71 1006.8
20200704184949 51 180 4.0 5.0 0.00 0.00 0.00 71 1006.7
20200704184439 51 180 2.0 4.0 0.00 0.00 0.00 72 1006.9
20200704183928 51 180 2.0 9.0 0.00 0.00 0.00 72 1006.9
20200704183419 51 293 3.0 9.0 0.00 0.00 0.00 71 1007.0
20200704183141 51 180 5.0 8.0 0.00 0.00 0.00 71 1006.8
20200704182358 51 180 4.0 8.0 0.00 0.00 0.00 71 1006.8
20200704181847 52 180 4.0 5.0 0.00 0.00 0.00 71 1006.8
20200704181338 52 180 1.0 5.0 0.00 0.00 0.00 71 1006.7
20200704180826 52 225 2.0 6.0 0.00 0.00 0.00 70 1006.7
20200704180317 52 180 4.0 6.0 0.00 0.00 0.00 70 1006.6
20200704175806 52 225 2.0 8.0 0.00 0.00 0.00 70 1006.9
20200704175257 52 225 4.0 8.0 0.00 0.00 0.00 69 1006.9
20200704174746 52 225 2.0 3.0 0.00 0.00 0.00 69 1006.8
20200704174430 52 90 2.0 7.0 0.00 0.00 0.00 68 1006.9
20200704173920 53 180 2.0 7.0 0.00 0.00 0.00 67 1006.8
20200704173409 53 135 4.0 7.0 0.00 0.00 0.00 67 1007.0
20200704172905 53 135 4.0 8.0 0.00 0.00 0.00 67 1007.1
20200704172349 53 225 2.0 8.0 0.00 0.00 0.00 66 1007.1
20200704171840 53 180 3.0 7.0 0.00 0.00 0.00 65 1007.3
20200704171334 54 180 3.0 8.0 0.00 0.00 0.00 63 1007.4
20200704170819 54 180 2.0 8.0 0.00 0.00 0.00 63 1007.3
20200704170310 54 180 3.0 8.0 0.00 0.00 0.00 63 1007.3
20200704165759 54 90 4.0 11.0 0.00 0.00 0.00 63 1007.5
20200704165248 54 180 4.0 11.0 0.00 0.00 0.00 63 1007.5
20200704164738 54 180 7.0 10.0 0.00 0.00 0.00 62 1007.7
20200704164228 55 315 2.0 9.0 0.00 0.00 0.00 62 1007.6
20200704163718 55 225 3.0 9.0 0.00 0.00 0.00 62 1007.8
20200704163209 55 135 4.0 6.0 0.00 0.00 0.00 61 1007.6
20200704162656 55 225 4.0 0.0 0.00 0.00 0.00 61 1007.8
20200704162241 55 180 4.0 8.0 0.00 0.00 0.00 61 1007.8
20200704161729 55 225 4.0 8.0 0.00 0.00 0.00 62 1007.8
20200704161222 55 180 6.0 8.0 0.00 0.00 0.00 61 1007.8
20200704160709 55 180 4.0 5.0 0.00 0.00 0.00 62 1007.8
20200704160202 55 135 2.0 6.0 0.00 0.00 0.00 63 1007.9
20200704155648 54 180 4.0 8.0 0.00 0.00 0.00 64 1007.9
20200704155139 54 135 4.0 8.0 0.00 0.00 0.00 63 1008.3
20200704154629 54 180 4.0 8.0 0.00 0.00 0.00 63 1008.1
20200704154118 54 180 7.0 8.0 0.00 0.00 0.00 62 1008.4
20200704153611 56 248 5.0 8.0 0.00 0.00 0.00 63 1008.5
20200704153058 55 203 2.0 8.0 0.00 0.00 0.00 66 1008.4
20200704152547 53 180 4.0 8.0 0.00 0.00 0.00 68 1008.5
20200704152038 53 135 4.0 7.0 0.00 0.00 0.00 68 1008.6
20200704151532 53 225 3.0 7.0 0.00 0.00 0.00 67 1008.8
20200704151020 53 180 4.0 8.0 0.00 0.00 0.00 69 1008.7
20200704150507 52 135 6.0 8.0 0.00 0.00 0.00 69 1008.7
20200704145957 52 180 3.0 8.0 0.00 0.00 0.00 68 1008.9
20200704145448 53 180 2.0 8.0 0.00 0.00 0.00 68 1009.0
20200704144939 53 225 4.0 6.0 0.00 0.00 0.00 69 1009.2
20200704144427 53 180 4.0 6.0 0.00 0.00 0.00 69 1009.3
20200704143917 52 180 3.0 6.0 0.00 0.00 0.00 69 1009.1
20200704143408 52 135 3.0 4.0 0.00 0.00 0.00 70 1009.3
20200704142857 52 135 2.0 6.0 0.00 0.00 0.00 70 1009.3
20200704142346 52 270 1.0 6.0 0.00 0.00 0.00 71 1009.5
20200704141836 52 270 1.0 6.0 0.00 0.00 0.00 72 1009.4
20200704141327 51 225 2.0 7.0 0.00 0.00 0.00 73 1009.4
20200704140816 51 270 4.0 7.0 0.00 0.00 0.00 74 1009.4
20200704140306 51 180 3.0 4.0 0.00 0.00 0.00 74 1009.2
20200704135756 50 225 2.0 4.0 0.00 0.00 0.00 75 1009.3
20200704135245 50 225 3.0 5.0 0.00 0.00 0.00 75 1009.6
20200704134736 50 203 2.0 5.0 0.00 0.00 0.00 76 1009.6
20200704134226 50 270 2.0 3.0 0.00 0.00 0.00 76 1009.5
20200704133719 50 180 1.0 3.0 0.00 0.00 0.00 77 1009.5
20200704133205 50 225 2.0 4.0 0.00 0.00 0.00 78 1009.5
20200704132655 50 203 2.0 4.0 0.00 0.00 0.00 78 1009.5
20200704132144 49 225 2.0 5.0 0.00 0.00 0.00 78 1009.4
20200704131635 49 270 1.0 5.0 0.00 0.00 0.00 79 1009.3
20200704131125 49 225 3.0 5.0 0.00 0.00 0.00 79 1009.3
20200704130615 49 225 2.0 5.0 0.00 0.00 0.00 79 1009.2
20200704130107 49 180 2.0 5.0 0.00 0.00 0.00 79 1009.0
20200704125557 49 180 2.0 5.0 0.00 0.00 0.00 78 1009.1
20200704125043 50 135 2.0 4.0 0.00 0.00 0.00 79 1008.8
20200704124534 49 270 1.0 4.0 0.00 0.00 0.00 80 1008.7
20200704124024 49 225 2.0 3.0 0.00 0.00 0.00 80 1008.4
20200704123511 49 225 2.0 0.0 0.00 0.00 0.00 80 1008.5
20200704123024 49 315 2.0 4.0 0.00 0.00 0.00 80 1008.6
20200704122514 49 270 1.0 4.0 0.00 0.00 0.00 81 1008.5
20200704122006 49 225 2.0 4.0 0.00 0.00 0.00 81 1008.2
20200704121455 49 225 4.0 4.0 0.00 0.00 0.00 81 1008.2
20200704120943 49 225 1.0 4.0 0.00 0.00 0.00 81 1008.1
20200704120436 49 225 2.0 4.0 0.00 0.00 0.00 81 1008.3
20200704115924 49 225 2.0 5.0 0.00 0.00 0.00 81 1008.4
20200704115414 48 225 4.0 5.0 0.00 0.00 0.00 81 1008.2
20200704114905 48 225 2.0 4.0 0.00 0.00 0.00 81 1008.3
20200704114354 48 225 2.0 4.0 0.00 0.00 0.00 81 1008.1
20200704113843 48 225 2.0 4.0 0.00 0.00 0.00 81 1008.1
20200704113333 48 225 2.0 4.0 0.00 0.00 0.00 81 1008.1
20200704112823 48 0 2.0 4.0 0.00 0.00 0.00 80 1008.1
20200704112312 48 225 2.0 4.0 0.00 0.00 0.00 80 1007.9
20200704111803 48 270 2.0 4.0 0.00 0.00 0.00 80 1008.0
20200704111252 48 225 2.0 4.0 0.00 0.00 0.00 80 1007.9
20200704110743 49 225 1.0 5.0 0.00 0.00 0.00 79 1007.9
20200704110238 49 315 2.0 5.0 0.00 0.00 0.00 79 1007.8
20200704105722 49 225 2.0 5.0 0.00 0.00 0.00 79 1007.7
20200704105212 49 180 3.0 8.0 0.00 0.00 0.00 79 1007.7
20200704104702 49 315 0.0 8.0 0.00 0.00 0.00 79 1007.7
20200704104154 49 315 1.0 2.0 0.00 0.00 0.00 78 1007.4
20200704103641 49 225 1.0 2.0 0.00 0.00 0.00 78 1007.3
20200704103131 49 270 0.0 4.0 0.00 0.00 0.00 78 1007.2
20200704102621 49 270 1.0 4.0 0.00 0.00 0.00 78 1007.3
20200704102112 49 225 2.0 6.0 0.00 0.00 0.00 78 1007.6
20200704101600 49 225 2.0 6.0 0.00 0.00 0.00 78 1007.4
20200704101051 49 180 3.0 4.0 0.00 0.00 0.00 79 1007.6
20200704100541 49 270 2.0 4.0 0.00 0.00 0.00 79 1007.8
20200704100031 49 180 2.0 4.0 0.00 0.00 0.00 80 1007.8